STARLINK-4299, 53172

Orbit data source: Space-Track

STARLINK-4299, 53172 is a payload satellite owned by SpaceX/Seattle (US) in LEO that was launched on Sun, 17 Jul 2022 UTC via an FALCON 9 launch vehicle from the Air Force Eastern Test Range (AFETR). Payload-class satellites include a variety of spacecraft equipped with specific instruments for various scientific and technological missions. These include communications satellites like Starlink; space stations such as the ISS; scientific satellites like the Hubble; Earth observation satellites from companies like Planet Labs, Umbra, and HawkEye 360; GPS; miniature CubeSats for education and research; and military/defense satellites.

Loading next visibility...
Identifier
53172, 2022-083AS
Orbit
LEO
Country
Flag of USUS
Related business
Manufacturer
SpaceX/Seattle
Mission
Operational Commercial Communications
Bus & Motor
STARLINK, Unknown motor
Mass
297 kg wet, ~275 kg dry
Launch date (UTC)
2022-07-17 (4 years ago)
Launch vehicle
FALCON 9
Launch site
Air Force Eastern Test Range (AFETR)
Object type
Payload
Rocket body
Debris
Shape & HBR
Box + 1 Pan, 10.1 m
Radar Cross Section
13.562 m², Large (>1 m²)

Expand to show TLE details & history
Last TLE update: 2 days ago

TLE from 2 days ago
0 STARLINK-4299
1 53172U 22083AS  26171.38310804 -.00000056  00000-0  14572-4 0  9992
2 53172  53.1603  57.9099 0001392  89.7292 270.3859 15.08830919216927
Epoch: 2026-06-20T09:11Z
TLE epoch observation values (Epoch: 2026-06-20T09:11:40.534Z)
Latitude
-0.00002°
Longitude
11.39247°
Altitude
540.656 km
Speed
7.593 km/s
True Right ascension
03h 51m 38s
True Declination
0° 00' 00"
Sunlit
Object was in daylight at epoch
Visualization orbit readout
Latitude
Unknown
Longitude
Unknown
Altitude
Unknown
Speed
Unknown
Apparent Right ascension
Unknown
Apparent Declination
Unknown
Sunlit
N/A
Visualization observer readout
Local Sidereal Time
21:24:28
Azimuth
Unknown
Elevation
Unknown
Doppler factor
Unknown
Orbital elements
Apogee altitude
540.988 km
Perigee altitude
539.062 km
Semi-major axis
6,918.162 km
Eccentricity
0.00014
Inclination
53.1603°
RAAN
57.9099°
Arg. of periapsis
89.7292°
True anomaly
270.36995°
Mean anomaly
270.3859°
Eccentric anomaly
270.37792°
Mean motion
3.77187 °/min
Orbital period
95.44 mins
BSTAR
0.000014572
Loading maneuver chart data...
Computing Atmospheric mass density...
Loading historical data...
Loading historical data...
Loading historical data...
Loading historical data...
Loading historical data...
Loading historical data...
Loading historical data...

Documentation

Showing up to 5 results
|